Content
SEND FEEDBACK

Daily
Averages
Monthly
Summary
United States of America

AGAT, GUAM


Home > North America > United States > Guam
Elevation: 110 meters     Latitude: 13 33N     Longitude: 144 50E

WEATHER
 
SELECT A DAY
Number of Records: 214,928;   Date Range: 1/1/95 - 11/26/14
 
SHARE

PRINT THIS DATA

[ ← Previous Day ]
WEATHER ALMANAC - 11 JULY, 2013
[ Next Day → ]
[ °F ]   °C
Weather ElementAverageHighLow
Temperature30.5 °C33 °C (12:42 pm)27.8 °C (4:54 am)
Dewpoint23.9 °C25 °C (9:54 pm)22.8 °C (3:54 pm)
Humidity68.1 %82 % (11:54 pm)55 % (3:54 pm)
Barometer1010.2 hPa1011.5 hPa (9:54 pm)1008.8 hPa (3:54 pm)
Wind Speed15.3 km/h25.9 km/h (12:42 pm)
Wind Gust33.3 km/h (1:54 pm)
Weather ElementAverage
Visibility15.8 km
Wind DirectionENE (81.7 °)

Weather ElementTotal
Precipitation---
Cooling Degree Days12.1 (Base 18.3)
Growing Degree Days20.4 (Base 10)
Averaged from 23 records on 11 July, 2013
WEATHER CONDITIONS BREAKOUT
WIND DIRECTION BREAKOUT
WEATHER BY HOUR - 11 JULY, 2013
[ °F ]   °C
Local TimeTemperatureDewpointHumidityBarometerVisibilityWind DirectionWind SpeedGust SpeedPrecipitationEventsConditions
1:54 AM28.3 °C23.9 °C77 %1009.8 hPa16.1 kmESE (120°)11.1 km/hClear
2:54 AM28.3 °C23.9 °C77 %1009.5 hPa16.1 kmEast (90°)9.3 km/hClear
3:54 AM28.3 °C23.9 °C77 %1009.8 hPa16.1 kmEast (100°)7.4 km/hClear
4:54 AM27.8 °C23.9 °C79 %1009.8 hPa16.1 kmEast (90°)7.4 km/hClear
5:54 AM28.3 °C23.9 °C77 %1010.2 hPa16.1 kmEast (80°)9.3 km/hClear
6:54 AM28.9 °C23.9 °C74 %1010.8 hPa16.1 kmEast (90°)9.3 km/hClear
9:54 AM31.7 °C23.9 °C63 %1011.2 hPa16.1 kmEast (90°)18.5 km/hScattered Clouds
10:54 AM32.2 °C23.9 °C61 %1010.8 hPa16.1 kmEast (80°)18.5 km/hScattered Clouds
11:54 AM32.8 °C23.9 °C59 %1010.2 hPa16.1 kmEast (80°)22.2 km/h29.6 km/hScattered Clouds
12:34 PM32 °C24 °C62 %1010.8 hPa16.1 kmEast (90°)22.2 km/hMostly Cloudy
12:42 PM33 °C24 °C59 %1010.5 hPa16.1 kmENE (70°)25.9 km/h31.5 km/hScattered Clouds
12:54 PM32.8 °C23.9 °C59 %1009.8 hPa16.1 kmEast (90°)16.7 km/hScattered Clouds
1:54 PM32.8 °C23.9 °C59 %1009.5 hPa16.1 kmEast (100°)22.2 km/h33.3 km/hPartly Cloudy
2:54 PM32.8 °C23.3 °C57 %1009.1 hPa16.1 kmEast (90°)24.1 km/hScattered Clouds
3:54 PM32.8 °C22.8 °C55 %1008.8 hPa16.1 kmEast (80°)16.7 km/h31.5 km/hPartly Cloudy
4:54 PM31.7 °C22.8 °C59 %1008.8 hPa16.1 kmENE (60°)20.4 km/hPartly Cloudy
5:54 PM31.1 °C23.3 °C63 %1009.5 hPa16.1 kmENE (70°)14.8 km/hClear
6:54 PM30 °C23.9 °C70 %1010.2 hPa16.1 kmEast (80°)13 km/hClear
7:54 PM29.4 °C24.4 °C74 %1010.8 hPa16.1 kmEast (80°)9.3 km/hClear
8:54 PM30 °C23.9 °C70 %1011.2 hPa16.1 kmENE (70°)11.1 km/hClear
9:54 PM28.9 °C25 °C79 %1011.5 hPa16.1 kmENE (60°)13 km/h0 mmPartly Cloudy
10:54 PM29.4 °C24.4 °C74 %1011.5 hPa16.1 kmENE (70°)11.1 km/hClear
11:54 PM27.8 °C24.4 °C82 %1011.2 hPa8 kmNE (50°)18.5 km/h31.5 km/h0 mmRainHeavy Rain
Hourly data recorded from PGUM, located 0 kilometers away from Agat, Guam







STORIES FROM OUR PARTNERS